Kirksville, MO

10:18 PM CST on January 19, 2018 (GMT -0600)
Kirksville Regional

Weather History for KIRK - October, 2014

Change the Weather History Date:

Thursday, October 2, 2014

  Actual Average Record
Temperature  
Mean Temperature 63 °F 58 °F  
Max Temperature 68 °F 69 °F 94 °F (1953)
Min Temperature 58 °F 47 °F 26 °F (1974)
Degree Days  
Heating Degree Days 2 8  
Month to date heating degree days 3 16  
Since 1 July heating degree days 109 123  
Cooling Degree Days 0 1  
Month to date cooling degree days 0 2  
Year to date cooling degree days 955 929  
Growing Degree Days 14 (Base 50)    
Moisture  
Dew Point 64 °F    
Average Humidity 97    
Maximum Humidity 100    
Minimum Humidity 93    
Precipitation  
Precipitation 1.18 in 0.13 in 4.56 in (2005)
Month to date precipitation 2.04 0.25  
Year to date precipitation 40.20 31.77  
Sea Level Pressure  
Sea Level Pressure 29.76 in    
Wind  
Wind Speed 10 mph (SSE)    
Max Wind Speed 24 mph    
Max Gust Speed 29 mph    
Visibility 6 miles    
Events Fog , Rain , Thunderstorm    
T = Trace of Precipitation, MM = Missing Value Source: NWS Daily Summary

Daily Weather History Graph

Daily Weather History Graph

Search for Another Location

Airport or City:

Trip Planner

Search our weather history database for the weather conditions in past years. The results will help you decide how hot, cold, wet, or windy it might be!

Date:

Astronomy

Oct. 02, 2014 Rise Set
Actual Time 7:07 AM CDT 6:50 PM CDT
Civil Twilight 6:40 AM CDT 7:17 PM CDT
Nautical Twilight 6:09 AM CDT 7:49 PM CDT
Astronomical Twilight 5:37 AM CDT 8:20 PM CDT
Moon 2:57 PM CDT (10/2) 12:24 AM CDT (10/2)
Length of Visible Light 12h 37m
Length of Day
11h 43m
First Quarter, 60% of the Moon is Illuminated
Oct 2
First Quarter
Oct 8
Full
Oct 15
Last Quarter
Oct 23
New
Oct 30
First Quarter

Hourly Weather History & Observations

Time (CDT) Temp. Dew Point Humidity Pressure Visibility Wind Dir Wind Speed Gust Speed Precip Events Conditions
12:15 AM 64.9 °F 64.9 °F 100% 29.81 in 2.0 mi SE 11.5 mph - 0.05 in Rain , Thunderstorm Thunderstorms and Rain
12:31 AM 64.9 °F 64.9 °F 100% 29.78 in 3.0 mi SE 13.8 mph - 0.09 in Rain , Thunderstorm Light Thunderstorms and Rain
12:48 AM 66.2 °F 64.4 °F 94% 29.80 in 5.0 mi South 9.2 mph - N/A Rain , Thunderstorm Light Rain
12:55 AM 66.0 °F 64.9 °F 96% 29.78 in 5.0 mi SSE 8.1 mph - 0.11 in Rain , Thunderstorm Light Rain
12:59 AM 66.0 °F 64.9 °F 96% 29.79 in 5.0 mi South 6.9 mph - 0.01 in Rain Light Rain
1:11 AM 66.0 °F 64.9 °F 96% 29.79 in 6.0 mi South 9.2 mph - 0.01 in   Overcast
1:45 AM 64.9 °F 64.9 °F 100% 29.80 in 5.0 mi SSW 8.1 mph - 0.01 in   Overcast
1:55 AM 64.9 °F 64.9 °F 100% 29.78 in 5.0 mi South 9.2 mph - 0.01 in   Overcast
2:37 AM 64.9 °F 64.0 °F 97% 29.79 in 8.0 mi SSW 4.6 mph - N/A   Overcast
2:55 AM 64.0 °F 64.0 °F 100% 29.80 in 8.0 mi South 4.6 mph - N/A   Overcast
3:19 AM 64.0 °F 63.0 °F 96% 29.81 in 6.0 mi South 4.6 mph - N/A   Overcast
3:31 AM 64.0 °F 64.0 °F 100% 29.81 in 5.0 mi SSE 4.6 mph - N/A   Overcast
3:55 AM 64.0 °F 63.0 °F 96% 29.79 in 5.0 mi ENE 4.6 mph - N/A   Mostly Cloudy
4:55 AM 64.0 °F 63.0 °F 96% 29.81 in 8.0 mi SE 8.1 mph - N/A   Overcast
5:55 AM 63.0 °F 63.0 °F 100% 29.80 in 10.0 mi SE 3.5 mph - N/A   Mostly Cloudy
6:55 AM 63.0 °F 62.1 °F 97% 29.81 in 7.0 mi SE 6.9 mph - N/A   Overcast
7:13 AM 63.0 °F 63.0 °F 100% 29.82 in 10.0 mi SSE 9.2 mph - N/A   Overcast
7:55 AM 64.0 °F 62.1 °F 93% 29.83 in 10.0 mi SSE 10.4 mph - N/A   Mostly Cloudy
8:42 AM 64.0 °F 62.1 °F 93% 29.81 in 10.0 mi SE 6.9 mph - 0.00 in   Overcast
8:55 AM 64.0 °F 63.0 °F 96% 29.80 in 10.0 mi SE 8.1 mph - 0.00 in   Overcast
9:04 AM 64.0 °F 63.0 °F 96% 29.81 in 10.0 mi SSE 10.4 mph - N/A   Overcast
9:14 AM 61.0 °F 60.1 °F 97% 29.90 in 1.5 mi ESE 6.9 mph - 0.08 in Rain , Thunderstorm Thunderstorms and Rain
9:29 AM 64.0 °F 63.0 °F 96% 29.82 in 10.0 mi South 13.8 mph - N/A Thunderstorm Overcast
9:47 AM 64.9 °F 63.0 °F 93% 29.81 in 10.0 mi South 13.8 mph 21.9 mph 0.00 in Rain , Thunderstorm Light Rain
9:55 AM 64.9 °F 63.0 °F 93% 29.80 in 10.0 mi South 12.7 mph - 0.00 in Rain , Thunderstorm Light Rain
10:21 AM 66.0 °F 64.0 °F 93% 29.80 in 10.0 mi SW 5.8 mph 16.1 mph 0.00 in   Overcast
10:55 AM 66.0 °F 64.0 °F 93% 29.78 in 10.0 mi South 6.9 mph - 0.00 in Rain Light Rain
11:55 AM 66.0 °F 64.9 °F 96% 29.76 in 7.0 mi SSE 23.0 mph - 0.01 in Rain Light Rain
12:55 PM 66.9 °F 64.0 °F 90% 29.74 in 10.0 mi SSE 19.6 mph 28.8 mph 0.04 in   Overcast
1:45 PM 66.0 °F 64.9 °F 96% 29.77 in 2.5 mi NW 5.8 mph - 0.05 in Rain Light Rain
1:49 PM 66.2 °F 64.4 °F 94% 29.78 in 1.8 mi NW 3.5 mph - 0.07 in Rain , Thunderstorm Rain
1:55 PM 66.0 °F 64.9 °F 96% 29.79 in 0.8 mi WSW 3.5 mph - 0.11 in Rain , Thunderstorm Heavy Rain
2:00 PM 66.0 °F 64.9 °F 96% 29.79 in 1.0 mi WNW 5.8 mph - 0.04 in Rain , Thunderstorm Rain
2:05 PM 66.0 °F 64.9 °F 96% 29.79 in 0.8 mi NW 5.8 mph - 0.07 in Rain , Thunderstorm Heavy Rain
2:10 PM 64.9 °F 64.9 °F 100% 29.80 in 0.8 mi WNW 10.4 mph - 0.17 in Rain , Thunderstorm Heavy Thunderstorms and Rain
2:17 PM 64.9 °F 64.9 °F 100% 29.82 in 0.5 mi West 6.9 mph - 0.30 in Fog , Rain , Thunderstorm Heavy Thunderstorms and Rain
2:25 PM 64.9 °F 64.9 °F 100% 29.81 in 0.2 mi WNW 6.9 mph - 0.50 in Fog , Rain , Thunderstorm Heavy Rain
2:38 PM 64.9 °F 64.9 °F 100% 29.81 in 0.8 mi WNW 8.1 mph - 0.65 in Rain , Thunderstorm Heavy Rain
2:41 PM 64.9 °F 64.9 °F 100% 29.80 in 0.5 mi WNW 4.6 mph - 0.69 in Fog , Rain Heavy Rain
2:47 PM 64.9 °F 64.9 °F 100% 29.75 in 0.5 mi North 11.5 mph - 0.81 in Fog , Rain , Thunderstorm Rain
2:50 PM 64.4 °F 64.4 °F 100% 29.75 in 1.0 mi NNE 9.2 mph - 0.82 in Rain , Thunderstorm Rain
2:55 PM 64.9 °F 64.9 °F 100% 29.74 in 2.5 mi ENE 8.1 mph - 0.84 in Rain , Thunderstorm Light Rain
3:01 PM 66.2 °F 64.4 °F 94% 29.73 in 6.0 mi East 10.4 mph - N/A Rain Light Rain
3:55 PM 66.9 °F 66.0 °F 97% 29.72 in 10.0 mi ESE 10.4 mph - 0.00 in   Mostly Cloudy
4:23 PM 68.0 °F 66.0 °F 93% 29.71 in 10.0 mi SE 12.7 mph - N/A   Overcast
4:38 PM 68.0 °F 66.0 °F 93% 29.72 in 10.0 mi SE 11.5 mph - N/A   Overcast
4:55 PM 68.0 °F 66.0 °F 93% 29.70 in 10.0 mi SE 11.5 mph - N/A   Overcast
5:55 PM 66.9 °F 64.0 °F 90% 29.70 in 10.0 mi East 8.1 mph - 0.00 in Rain Light Rain
6:27 PM 66.0 °F 64.0 °F 93% 29.66 in 10.0 mi East 9.2 mph - 0.00 in Rain Light Rain
6:53 PM 66.2 °F 64.4 °F 94% 29.69 in 10.0 mi Calm Calm - 0.00 in   Overcast
6:55 PM 66.0 °F 64.9 °F 96% 29.69 in 10.0 mi Calm Calm - 0.00 in   Overcast
7:42 PM 64.9 °F 64.9 °F 100% 29.67 in 9.0 mi East 3.5 mph - 0.01 in Rain Light Rain
7:55 PM 64.9 °F 64.0 °F 97% 29.67 in 10.0 mi SSE 4.6 mph - 0.01 in   Mostly Cloudy
8:11 PM 64.9 °F 64.9 °F 100% 29.66 in 10.0 mi ESE 3.5 mph - N/A   Overcast
8:19 PM 64.9 °F 64.9 °F 100% 29.67 in 10.0 mi Calm Calm - N/A   Overcast
8:55 PM 64.9 °F 64.9 °F 100% 29.68 in 5.0 mi NNW 3.5 mph - 0.01 in Rain Light Rain
9:06 PM 64.9 °F 64.9 °F 100% 29.68 in 3.0 mi NNW 4.6 mph - 0.02 in Rain Rain
9:20 PM 64.9 °F 64.9 °F 100% 29.68 in 2.5 mi North 5.8 mph - 0.07 in Rain Rain
9:28 PM 64.9 °F 64.9 °F 100% 29.68 in 4.0 mi North 5.8 mph - 0.08 in Rain Light Rain
9:55 PM 64.0 °F 63.0 °F 96% 29.67 in 5.0 mi NNW 17.3 mph 27.6 mph 0.09 in   Overcast
10:55 PM 61.0 °F 59.0 °F 93% 29.69 in 10.0 mi NW 11.5 mph 24.2 mph 0.04 in Rain Light Rain
11:50 PM 59.0 °F 55.4 °F 88% 29.70 in 10.0 mi NNW 15.0 mph 24.2 mph 0.03 in   Overcast
11:55 PM 57.9 °F 55.9 °F 93% 29.70 in 10.0 mi NNW 15.0 mph 25.3 mph 0.03 in   Overcast